Airfield :
LOGIN :

Register | Disclaimer

   EN    FR    IT 

 










Legend :    VFR   Marginal VFR   IFR   Intensive IFR   Very Intensive IFR
Visi :
Ceiling :
>= 8 km
>= 3000ft
5 to 8 km
1000 to 3000 ft
1500m to 5 km
500 to 1000 ft
800 to 1500m
200 to 500 ft
< 800m
< 200 ft
Symbols :   Thunderstorms  Fog  Heavy snow  Heavy precipitations  Wind > 20 kt
SIGMETs :     Misc.  Thunderstorms  Icing  Turbulence  Mountain Waves  Volcanic Ashes







- Airport Elevation : 17 ft
- IATA code : MPL
- Download approach charts


LFMT - Montpellier Méditerranée

CURRENT METAR :
  • 250200Z AUTO 33007KT CAVOK 20/11 Q1016 NOSIG

EXPIRED METARs :
  • 250130Z AUTO 34007KT CAVOK 20/11 Q1016 NOSIG
  • 250100Z AUTO 01005KT CAVOK 18/11 Q1016 NOSIG
  • 250030Z AUTO 34003KT 320V060 CAVOK 21/11 Q1016 NOSIG
  • 250000Z AUTO 03004KT CAVOK 20/11 Q1016 NOSIG
  • 242330Z AUTO 01002KT CAVOK 21/10 Q1016 NOSIG

TAF TAF LFMT
Valid from the 24 at 21:00 until the 25 at 21:00 UTC


242000Z 2421/2521 VRB05KT CAVOK
BECMG 2500/2503 02010KT
BECMG 2512/2515 18010KT
ATIS : +33 4 67 13 11 70
No reported NOTAMs for that airfield.



MET'MAP, your aeronautical weather chart ! - Copyright ORBIFLY December 2007 - Disclaimer

ORBIFLY MET'MAP TEAM :

Programming & Development : Alexandra Zaïnal
Concept & Development : Baudouin d'Aumeries
Co-Development & Prog : Marc-Olivier Méhu
Technical & hardware support : Manuel Goepfert

Contact : metmap@orbifly.com




SOURCES & CREDITS :

   NOAA